Flag for Germany Weather past 2 weeks in Bad Vilbel, Hesse, Germany

Now
50 °F

Passing clouds.


Feels Like: 50 °F
Forecast: 43 / 67 °F
Wind: 1 mph from Southwest

Location: Frankfurt / M-Flughafen

Current Time: Aug 21, 2014 at 4:57:05 AM

Latest Report: Aug 21, 2014 at 4:00 AM


Visibility: 31 mi

Pressure: 30.04 "Hg

Humidity: 89%

Dew point: 47 °F

Location of Bad VilbelLocation

Historic Weather in Bad Vilbel — Graph

°F

Bad Vilbel temperature yesterday

Maximum temperature yesterday: 65 °F (at 2:00 PM)
Minimum temperature yesterday: 48 °F (at 7:00 AM)
Average temperature yesterday: 57 °F

Past Weeks' High & Low Weather Summary

 TemperatureHumidityPressure
High82 °F (Aug 8, 3:00 PM)96% (Aug 19, 7:00 AM)30.11 "Hg (Aug 19, 7:00 AM)
Low48 °F (Aug 20, 7:00 AM)33% (Aug 12, 7:00 PM)29.64 "Hg (Aug 13, 5:00 PM)
Average64 °F72%29.91 "Hg
* Reported Aug 6 4:00 AM — Aug 21 4:00 AM, Bad Vilbel, Weather by CustomWeather, © 2014

Note: Actual official high and low records may vary slightly from our data, if they occured in-between our weather recording intervals... More about our weather records

Advertising

Bad Vilbel weather history for previous 24 hours

 ConditionsComfort  
Time TempWeatherWind HumidityBarometerVisibility
4:00 AM
Aug 21
50 °FPassing clouds.1 mph89%30.04 "Hg31 mi
3:00 AM52 °FPassing clouds.1 mph84%30.03 "Hg37 mi
2:00 AM54 °FPassing clouds.1 mph81%30.03 "Hg37 mi
1:00 AM54 °FPassing clouds.1 mph78%30.03 "Hg37 mi
12:00 AM55 °FPassing clouds.1 mph77%30.02 "Hg37 mi
10:00 PM
Aug 20
60 °FPassing clouds.2 mph55%30.01 "Hg37 mi
9:00 PM61 °FOvercast.2 mph56%30.00 "Hg40 mi
8:00 PM63 °FOvercast.1 mph50%29.99 "Hg31 mi
7:00 PM64 °FOvercast.3 mph45%29.99 "Hg31 mi
6:00 PM65 °FPartly sunny.3 mph40%30.00 "Hg31 mi
4:00 PM65 °FPartly sunny.3 mph43%30.01 "Hg31 mi
3:00 PM64 °FPartly sunny.3 mph43%30.02 "Hg31 mi
2:00 PM65 °FPartly sunny.3 mph43%30.03 "Hg31 mi
1:00 PM62 °FPartly sunny.3 mph46%30.04 "Hg31 mi
12:00 PM62 °FPartly sunny.3 mph55%30.05 "Hg31 mi
11:00 AM59 °FPartly sunny.2 mph61%30.06 "Hg31 mi
10:00 AM56 °FScattered clouds.2 mph71%30.06 "Hg31 mi
9:00 AM53 °FScattered clouds.2 mph82%30.06 "Hg31 mi
8:00 AM49 °FScattered clouds.3 mph85%30.06 "Hg31 mi
7:00 AM48 °FScattered clouds.2 mph87%30.05 "Hg22 mi
6:00 AM49 °FClear.2 mph85%30.03 "Hg22 mi
4:00 AM49 °FPassing clouds.2 mph87%30.02 "Hg16 mi
Weather by CustomWeather, © 2014

See weather overviewHow to use our weather pages